Powrót do katalogu

STARLINK-4293

AktywnyŁącznośćVLEO
NORAD 52989·PAYLOAD·🇺🇸 United States

Wystrzelony Jul 7, 2022 z Cape Canaveral Space Force Station

Loading…

Następne Przeloty (najbliższe 24 godziny)

TLE

ŚwieżeSource: CelesTrak SupGP

Epoka: Sep 14, 2026, 21:59 UTC

1 52989C 22076D   26257.91645833  .00453110  00000+0  10522-2 0  2573
2 52989  53.2122 287.2954 0001838  69.1376 129.6344 15.96151340    14

Śledź STARLINK-4293 w czasie rzeczywistym z AllMySat

Download on the App Store